STARLINK-1122, 44949

Orbit data source: Space-Track

STARLINK-1122, 44949 is a payload satellite owned by SpaceX/Seattle (US) in LEO that was launched on Tue, 07 Jan 2020 UTC via an FALCON 9 launch vehicle from the Air Force Eastern Test Range (AFETR). Payload-class satellites include a variety of spacecraft equipped with specific instruments for various scientific and technological missions. These include communications satellites like Starlink; space stations such as the ISS; scientific satellites like the Hubble; Earth observation satellites from companies like Planet Labs, Umbra, and HawkEye 360; GPS; miniature CubeSats for education and research; and military/defense satellites.

Loading next visibility...
Identifier
44949, 2020-001AM
Orbit
LEO
Country
Flag of USUS
Related business
Manufacturer
SpaceX/Seattle
Mission
Operational Commercial Communications
Bus & Motor
STARLINK, Unknown motor
Mass
260 kg wet, ~248 kg dry
Launch date (UTC)
2020-01-07 (6 years ago)
Launch vehicle
FALCON 9
Launch site
Air Force Eastern Test Range (AFETR)
Object type
Payload
Rocket body
Debris
Shape & HBR
Box + 1 Pan, 10.1 m
Radar Cross Section
13.562 m², Large (>1 m²)

Expand to show TLE details & history
Last TLE update: 13 hours ago

TLE from 13 hours ago
0 STARLINK-1122
1 44949U 20001AM  26035.59141318 -.00001768  00000-0 -48963-4 0  9999
2 44949  53.1561 113.3081 0001264  95.0817 265.0328 15.29347975335169
Epoch: 2026-02-04T14:11Z
TLE epoch observation values (Epoch: 2026-02-04T14:11:38.098Z)
Latitude
-0°
Longitude
125.64356°
Altitude
478.734 km
Speed
7.627 km/s
True Right ascension
07h 33m 13s
True Declination
0° 00' 00"
Sunlit
Object was in full shadow at epoch
Visualization orbit readout
Latitude
Unknown
Longitude
Unknown
Altitude
Unknown
Speed
Unknown
Apparent Right ascension
Unknown
Apparent Declination
Unknown
Sunlit
N/A
Visualization observer readout
Local Sidereal Time
05:31:55
Azimuth
Unknown
Elevation
Unknown
Doppler factor
Unknown
Orbital elements
Apogee altitude
478.884 km
Perigee altitude
477.151 km
Semi-major axis
6,856.154 km
Eccentricity
0.00013
Inclination
53.1561°
RAAN
113.3081°
Arg. of periapsis
95.0817°
True anomaly
265.01837°
Mean anomaly
265.0328°
Eccentric anomaly
265.02559°
Mean motion
3.82316 °/min
Orbital period
94.16 mins
BSTAR
-0.000048963
Loading maneuver chart data...
Computing Atmospheric mass density...

Documentation

Showing up to 5 results
|